Alexandria, LA

10:38 PM CDT on May 28, 2017 (GMT -0500)
Alexandria International

Weather History for KAEX - November, 2013

Change the Weather History Date:

Friday, November 1, 2013

  Actual Average Record
Temperature  
Mean Temperature 63 °F 62 °F  
Max Temperature 75 °F 75 °F 87 °F (1946)
Min Temperature 51 °F 50 °F 29 °F (1898)
Degree Days  
Heating Degree Days 2 5  
Month to date heating degree days 2 5  
Since 1 July heating degree days 45 78  
Cooling Degree Days 0 2  
Month to date cooling degree days 0 2  
Year to date cooling degree days 2589 2488  
Growing Degree Days 12 (Base 50)    
Moisture  
Dew Point 54 °F    
Average Humidity 71    
Maximum Humidity 100    
Minimum Humidity 41    
Precipitation  
Precipitation 0.00 in 0.05 in 2.07 in (1991)
Month to date precipitation 0.00 0.05  
Year to date precipitation 47.87 44.36  
Snow  
Snow 0.00 in - 0.00 in ()
Month to date snowfall 0.0  
Since 1 July snowfall 0.0  
Since 1 September snowfall 0.0  
Snow Depth 0.00 in    
Sea Level Pressure  
Sea Level Pressure 29.90 in    
Wind  
Wind Speed 2 mph (WNW)    
Max Wind Speed 8 mph    
Max Gust Speed 14 mph    
Visibility 9 miles    
Events Fog    
T = Trace of Precipitation, MM = Missing Value Source: NWS Daily Summary

Daily Weather History Graph

Daily Weather History Graph

Search for Another Location

Airport or City:

Trip Planner

Search our weather history database for the weather conditions in past years. The results will help you decide how hot, cold, wet, or windy it might be!

Date:

Astronomy

Nov. 01, 2013 Rise Set
Actual Time 7:26 AM CDT 6:21 PM CDT
Civil Twilight 7:01 AM CDT 6:46 PM CDT
Nautical Twilight 6:32 AM CDT 7:14 PM CDT
Astronomical Twilight 6:03 AM CDT 7:43 PM CDT
Moon 5:25 AM CDT (11/1) 5:09 PM CDT (11/1)
Length of Visible Light 11h 45m
Length of Day
10h 54m
Waning Crescent, 4% of the Moon is Illuminated
Nov 1
Waning Crescent
Nov 3
New
Nov 9
First Quarter
Nov 17
Full
Nov 25
Last Quarter

Hourly Weather History & Observations

Time (CDT) Temp. Dew Point Humidity Pressure Visibility Wind Dir Wind Speed Gust Speed Precip Events Conditions
12:53 AM 62.1 °F 61.0 °F 96% 29.88 in 10.0 mi Calm Calm - 0.01 in   Mostly Cloudy
1:53 AM 62.1 °F 61.0 °F 96% 29.89 in 7.0 mi WNW 4.6 mph - N/A   Mostly Cloudy
2:00 AM 62.6 °F 60.8 °F 94% 29.88 in 7.0 mi WNW 6.9 mph - N/A   Overcast
2:53 AM 61.0 °F 60.1 °F 97% 29.88 in 8.0 mi WNW 4.6 mph - N/A   Mostly Cloudy
3:53 AM 57.9 °F 57.0 °F 97% 29.88 in 10.0 mi NW 4.6 mph - N/A   Mostly Cloudy
4:00 AM 57.2 °F 57.2 °F 100% 29.86 in 10.0 mi NW 4.6 mph - N/A   Mostly Cloudy
4:53 AM 57.0 °F 55.9 °F 96% 29.88 in 10.0 mi Calm Calm - N/A   Mostly Cloudy
5:53 AM 54.0 °F 53.1 °F 97% 29.89 in 5.0 mi Calm Calm - N/A   Clear
6:08 AM 53.6 °F 53.6 °F 100% 29.88 in 4.0 mi Calm Calm - N/A   Scattered Clouds
6:53 AM 53.1 °F 52.0 °F 96% 29.89 in 10.0 mi Calm Calm - N/A Fog Shallow Fog
6:57 AM 51.8 °F 51.8 °F 100% 29.88 in 0.2 mi Calm Calm - N/A Fog Shallow Fog
7:04 AM 51.8 °F 51.8 °F 100% 29.88 in 10.0 mi Calm Calm - N/A Fog Shallow Fog
7:53 AM 52.0 °F 52.0 °F 100% 29.90 in 10.0 mi Calm Calm - N/A Fog Shallow Fog
8:53 AM 57.0 °F 55.9 °F 96% 29.92 in 10.0 mi Calm Calm - 0.01 in   Clear
9:00 AM 57.2 °F 55.4 °F 94% 29.91 in 10.0 mi Calm Calm - N/A   Partly Cloudy
9:53 AM 62.1 °F 57.0 °F 84% 29.94 in 10.0 mi Calm Calm - N/A   Clear
10:53 AM 66.0 °F 54.0 °F 65% 29.94 in 10.0 mi Calm Calm - N/A   Clear
11:53 AM 69.1 °F 51.1 °F 53% 29.94 in 10.0 mi East 3.5 mph - N/A   Clear
12:53 PM 70.0 °F 48.9 °F 47% 29.91 in 10.0 mi Calm Calm - N/A   Clear
1:53 PM 71.1 °F 48.0 °F 44% 29.89 in 10.0 mi Variable 3.5 mph - N/A   Clear
2:53 PM 73.9 °F 48.9 °F 41% 29.87 in 10.0 mi West 6.9 mph - N/A   Clear
3:53 PM 73.9 °F 48.9 °F 41% 29.86 in 10.0 mi West 4.6 mph - N/A   Clear
4:53 PM 73.9 °F 48.9 °F 41% 29.86 in 10.0 mi Calm Calm - N/A   Clear
5:53 PM 69.1 °F 59.0 °F 70% 29.86 in 10.0 mi Calm Calm - N/A   Clear
6:53 PM 62.1 °F 55.0 °F 78% 29.88 in 10.0 mi Calm Calm - N/A   Clear
7:53 PM 60.1 °F 54.0 °F 80% 29.91 in 10.0 mi Calm Calm - N/A   Clear
8:53 PM 57.0 °F 55.0 °F 93% 29.92 in 10.0 mi Calm Calm - N/A   Clear
9:53 PM 55.9 °F 55.0 °F 97% 29.95 in 10.0 mi Calm Calm - N/A   Clear
10:53 PM 57.0 °F 55.9 °F 96% 29.97 in 10.0 mi Calm Calm - N/A   Mostly Cloudy
11:53 PM 55.9 °F 54.0 °F 93% 29.94 in 9.0 mi Calm Calm - N/A   Clear